Location: Unspecified
(0.0000°N, 0.0000°E)
Time: 23:07:10
(UTC+00:00)

RS-15 - Visible Passes

Search period start: 28 November 2023 00:00
Search period end: 08 December 2023 00:00
Orbit: 1890 x 2154 km, 64.8° (Epoch: 28 November)

Date Brightness Start Highest point End Pass type
(mag) Time Alt. Az. Time Alt. Az. Time Alt. Az.
28 Nov 8.7 18:41:15 10° S 18:51:54 35° ESE 18:58:59 20° ENE visible
28 Nov 8.7 20:52:33 10° SW 21:03:57 46° WNW 21:06:49 40° NW visible
29 Nov 9.1 18:06:49 10° SSE 18:15:50 24° ESE 18:24:47 10° ENE visible
29 Nov 8.4 20:15:55 10° SSW 20:27:57 64° WNW 20:32:58 40° N visible
30 Nov 8.1 19:39:41 10° SSW 19:51:59 86° WNW 19:59:09 31° NNE visible
30 Nov 9.9 22:00:27 10° W 22:04:24 12° WNW 22:07:00 11° NW visible
01 Dec 8.1 19:03:48 10° SSW 19:16:00 72° ESE 19:25:23 20° NNE visible
01 Dec 9.7 21:20:08 10° WSW 21:28:11 20° WNW 21:33:13 16° NW visible
02 Dec 8.4 18:28:17 10° S 18:40:01 52° ESE 18:51:38 10° NE visible
02 Dec 9.3 20:42:01 10° SW 20:52:05 30° WNW 20:59:29 17° NNW visible
03 Dec 8.9 20:04:46 10° SW 20:16:02 43° WNW 20:25:45 15° N visible
04 Dec 8.5 19:28:04 10° SSW 19:40:02 61° WNW 19:52:01 10° N visible
05 Dec 9.9 05:03:22 10° NNE 05:09:56 18° ENE 05:16:25 10° ESE visible
05 Dec 8.3 18:51:46 10° SSW 19:04:03 82° WNW 19:16:19 10° NNE visible
05 Dec 10.1 21:13:51 10° W 21:16:32 11° WNW 21:19:12 10° NW visible
06 Dec 8.2 18:15:51 10° SSW 18:28:05 75° ESE 18:40:17 10° NNE visible
06 Dec 9.9 20:32:39 10° WSW 20:40:17 19° WNW 20:47:58 10° NNW visible
07 Dec 9.5 19:54:20 10° WSW 20:04:10 29° WNW 20:14:02 10° NNW visible
